Powrót do katalogu

HULIANWANG DIGUI-99

AktywnyŁącznośćLEO
NORAD 66415·PAYLOAD·🇨🇳 China

Wystrzelony Nov 10, 2025 z Wenchang Space Launch Site

Loading…

Następne Przeloty (najbliższe 24 godziny)

TLE

ŚwieżeSource: Space-Track

Epoka: Sep 14, 2026, 14:03 UTC

1 66415U 25258D   26257.58546575 -.00000079  00000-0  97996-4 0  9992
2 66415  50.0067 334.9396 0000204 109.2307 250.8587 13.29329999 41610

Śledź HULIANWANG DIGUI-99 w czasie rzeczywistym z AllMySat

Download on the App Store